Regional Weather Roundup
Issued by NWS

Home | Current Version | Previous Version | Graphics & Text | Print | Product List | Glossary On
Versions: 1 2 3 4 5 6 7 8 9 10 11 12 13 14 15 16 17 18 19 20 21 22 23 24 25 26 27 28 29 30 31 32 33 34 35 36 37 38 39 40 41 42 43 44 45 46 47 48 49 50
398
ASUS44 KLIX 280610
RWRLA
LOUISIANA WEATHER ROUNDUP
NATIONAL WEATHER SERVICE NEW ORLEANS LA
1200 AM CST FRI NOV 28 2014

NOTE: "FAIR" INDICATES FEW OR NO CLOUDS BELOW 12,000 FEET WITH NO
      SIGNIFICANT WEATHER AND/OR OBSTRUCTIONS TO VISIBILITY.
      SKY/WX - SKY CONDITION AND SIGNIFICANT WEATHER.
      TMP - AIR TEMPERATURE.    DP   - DEWPOINT TEMPERATURE.
      RH  - RELATIVE HUMIDITY.  PRES - PRESSURE.
      HX  - HEAT INDEX.         WCI  - WIND CHILL INDEX.

*  THESE STATIONS ARE NOT NWS OR FAA STATIONS AND ARE NOT UNDER
   NWS QUALITY CONTROL.

LAZ040-048-061>063-065-066-069-280700-
SOUTHEAST LOUISIANA

CITY           SKY/WX    TMP DP  RH WIND       PRES   REMARKS
N.O. AUDUBON     N/A     47  36  63 MISG        N/A
6HR MIN TEMP:  47; 6HR MAX TEMP:  55;

N.O. INTL ARPT CLEAR     49  35  58 NE9       30.43F
6HR MIN TEMP:  49; 6HR MAX TEMP:  54;

N.O. LAKEFRONT CLEAR     51  36  56 NE17      30.44F
6HR MIN TEMP:  51; 6HR MAX TEMP:  57;

N.O. DOWNTOWN* FAIR      48  30  49 N7        30.44S
6HR MIN TEMP:  48; 6HR MAX TEMP:  57;

SLIDELL        CLEAR     36  32  85 CALM      30.44S
6HR MIN TEMP:  36; 6HR MAX TEMP:  47;

BATON ROUGE    CLEAR     39  33  79 NE3       30.44F
6HR MIN TEMP:  39; 6HR MAX TEMP:  52;

BOOTHVILLE     CLEAR     53  40  61 NE8       30.42F
6HR MIN TEMP:  53; 6HR MAX TEMP:  56;

BELLE CHASSE   CLEAR     45  34  65 NE5       30.43F
6HR MIN TEMP:  40; 6HR MAX TEMP:  54;

BOGALUSA*        N/A     35  31  87 CALM      30.46F
6HR MIN TEMP:  34; 6HR MAX TEMP:  44;

NEW ROADS*     FAIR      39  33  77 CALM      30.44F
6HR MIN TEMP:  39; 6HR MAX TEMP:  49;

GONZALES*      FAIR      40  35  80 CALM      30.44S
6HR MIN TEMP:  39; 6HR MAX TEMP:  53;

HAMMOND*       CLEAR     41  32  70 NE5       30.45F
HOUMA*         CLEAR     38  35  89 E3        30.42F
6HR MIN TEMP:  38; 6HR MAX TEMP:  51;

PORT FOURCHON* CLEAR     54  39  58 NE13      30.44F

$$

LAZ041-044-053-054-280700-
SOUTHWEST LOUISIANA

CITY           SKY/WX    TMP DP  RH WIND       PRES   REMARKS
LAKE CHARLES   CLEAR     43  36  76 E6        30.42F
6HR MIN TEMP:  43; 6HR MAX TEMP:  52;

LAFAYETTE      CLEAR     41  34  76 NE3       30.44F
6HR MIN TEMP:  41; 6HR MAX TEMP:  50;

PATTERSON      CLEAR     39  37  93 CALM      30.45S
6HR MIN TEMP:  39; 6HR MAX TEMP:  52;

SALT POINT       N/A     49  37  63 VRB3      30.42F
6HR MIN TEMP:  48; 6HR MAX TEMP:  59;

NEW IBERIA     CLEAR     45  35  68 NE9       30.44F
6HR MIN TEMP:  42; 6HR MAX TEMP:  52;

CHENAULT AIRPK CLEAR     43  36  78 E6        30.43S
6HR MIN TEMP:  42; 6HR MAX TEMP:  55;


$$

LAZ027-028-280700-
CENTRAL LOUISIANA

CITY           SKY/WX    TMP DP  RH WIND       PRES   REMARKS
FORT POLK      CLEAR     41  34  76 E5        30.42F
6HR MIN TEMP:  41; 6HR MAX TEMP:  47;

ALEXANDRIA INT CLEAR     41  33  73 E6        30.42F
6HR MIN TEMP:  40; 6HR MAX TEMP:  50;

ALEXANDRIA     FAIR      35  32  88 CALM      30.44F
6HR MIN TEMP:  34; 6HR MAX TEMP:  44;


$$

LAZ001-002-280700-
NORTHWEST LOUISIANA

CITY           SKY/WX    TMP DP  RH WIND       PRES   REMARKS
SHREVEPORT     CLEAR     41  33  73 SE3       30.42F
6HR MIN TEMP:  40; 6HR MAX TEMP:  49;

BARKSDALE AFB  CLEAR     39  31  74 SE3       30.43S
6HR MIN TEMP:  38; 6HR MAX TEMP:  49;

DTN SHREVEPORT CLEAR     40  31  70 SE3       30.43S
6HR MIN TEMP:  40; 6HR MAX TEMP:  48;


$$

LAZ014-016-280700-
NORTHEAST LOUISIANA

CITY           SKY/WX    TMP DP  RH WIND       PRES   REMARKS
MONROE         CLEAR     34  32  92 CALM      30.47S
6HR MIN TEMP:  34; 6HR MAX TEMP:  45;

TALLULAH       CLEAR     30  28  92 CALM      30.46F
6HR MIN TEMP:  28; 6HR MAX TEMP:  41;


$$




USA.gov is the U.S. government's official web portal to all federal, state and local government web resources and services.